GEFSMA_con_cape1000_030.txt.gz
Probability
100 100 100 97 97 97 97 100 97 94 90 84 74 71 77 81 87 58 58 100 100 100 100 100 100 100 100 100 100 100 100 100 100 100 100 100 100 100 100 87 48 19 6
100 100 100 97 100 97 97 97 94 90 94 90 90 81 84 87 94 94 77 90 100 100 100 100 100 100 100 100 100 100 100 100 100 100 100 100 100 100 100 97 84 39 6
90 100 100 100 100 100 94 87 94 87 84 81 84 77 71 61 61 68 71 77 90 97 100 97 97 100 100 100 100 100 100 100 100 100 100 100 100 100 100 97 90 74 16
90 100 100 100 100 100 100 94 74 71 61 55 48 39 29 23 32 29 32 45 77 87 94 97 97 97 100 100 100 100 100 100 100 100 100 100 100 100 90 100 90 81 10
100 97 97 100 97 81 74 74 58 52 52 48 32 26 23 19 10 10 13 13 35 77 81 90 100 100 100 100 100 100 100 100 100 100 100 100 100 97 68 48 68 61 23
100 100 97 90 81 68 65 61 61 42 39 29 26 23 10 6 3 3 3 6 3 16 39 71 84 94 100 100 100 100 97 97 97 100 100 100 100 100 55 23 16 16 13
90 90 84 77 74 68 65 58 48 39 29 19 16 13 6 3 3 3 3 3 3 0 0 29 45 68 81 90 94 97 97 94 94 97 100 100 100 100 81 32 6 3 3
87 81 74 61 65 61 55 55 42 39 29 16 6 3 0 0 0 3 3 0 0 0 0 0 0 26 26 32 32 58 90 90 100 100 100 97 94 100 94 52 3 0 0
77 71 65 52 52 52 52 52 45 32 16 10 3 3 0 0 0 0 0 0 0 0 0 0 0 0 0 3 3 6 58 74 100 97 100 97 87 84 71 61 26 0 0
68 71 58 52 52 42 39 35 32 26 16 13 3 3 3 0 0 0 0 0 0 0 0 0 0 0 0 0 0 0 0 3 16 77 97 100 94 68 45 74 94 42 3
52 55 58 48 42 29 26 16 13 13 10 6 3 3 3 0 0 0 0 0 0 0 0 0 0 0 0 0 0 0 0 0 0 0 16 52 74 65 58 71 97 90 55
19 32 42 42 35 23 19 13 10 3 3 0 0 0 0 0 0 0 0 0 0 0 0 0 0 0 0 0 0 0 0 0 0 0 0 0 10 19 39 65 77 74 71
3 6 13 10 16 19 16 10 6 0 0 0 0 0 0 0 0 0 0 0 0 0 0 0 0 0 0 0 0 0 0 0 0 0 0 0 0 0 0 6 32 48 42
0 0 0 0 6 10 10 6 3 3 0 0 0 0 0 0 0 0 0 0 0 0 0 0 0 0 0 0 0 0 0 0 0 0 0 0 0 0 0 0 3 3 0
0 0 0 0 0 0 0 3 3 0 0 0 0 0 0 0 0 0 0 0 0 0 0 0 0 0 0 0 0 0 0 0 0 0 0 0 0 0 0 0 0 0 0
0 0 0 0 0 0 0 0 0 0 0 0 0 0 0 0 0 0 0 0 0 0 0 0 0 0 0 0 0 0 0 0 0 0 0 0 0 0 0 0 0 0 0
0 0 0 0 0 0 0 0 0 0 0 0 0 0 0 0 0 0 0 0 0 0 0 0 0 0 0 0 0 0 0 0 0 0 0 0 0 0 0 0 0 0 0
0 0 0 0 0 0 0 0 0 0 0 0 0 0 0 0 0 0 0 0 0 0 0 0 0 0 0 0 0 0 0 0 0 0 0 0 0 0 0 0 0 0 0
0 0 0 0 0 0 0 0 0 0 0 0 0 0 0 0 0 0 0 0 0 0 0 0 0 0 0 0 0 0 0 0 0 0 0 0 0 0 0 0 0 0 0
0 0 0 0 0 0 0 0 0 0 0 0 0 0 0 0 0 0 0 0 0 0 0 0 0 0 0 0 0 0 0 0 0 0 0 0 0 0 0 0 0 0 0
0 0 0 0 0 0 0 0 0 0 0 0 0 0 0 0 0 0 0 0 0 0 0 0 0 0 0 0 0 0 0 0 0 0 0 0 0 0 0 0 0 0 0
0 0 0 0 0 0 0 0 0 0 0 0 0 0 0 0 0 0 0 0 0 0 0 0 0 0 0 0 0 0 0 0 0 0 0 0 0 0 0 0 0 0 0
0 0 0 0 0 0 0 0 0 0 0 0 0 0 0 0 0 0 0 0 0 0 0 0 0 0 0 0 0 0 0 0 0 0 0 0 0 0 0 0 0 0 0
0 0 0 0 0 0 0 0 0 0 0 0 0 0 0 0 0 0 0 0 0 0 0 0 0 0 0 0 0 0 0 0 0 0 0 0 0 0 0 0 0 0 0
0 0 0 0 0 0 0 0 0 0 0 0 0 0 0 0 0 0 0 0 0 0 0 0 0 0 0 0 0 0 0 0 0 0 0 0 0 0 0 0 0 0 0
0 0 0 0 0 0 0 0 0 0 0 0 0 0 0 0 0 0 0 0 0 0 0 0 0 0 0 0 0 0 0 0 0 0 0 0 0 0 0 0 0 0 0

GEFSMA_con_cape1000_036.txt.gz
Probability
90 90 94 97 97 90 90 90 94 97 97 100 100 100 100 97 94 87 87 100 100 100 100 100 100 100 100 100 100 100 100 100 100 100 100 100 100 97 94 81 35 10 3
77 68 61 77 84 97 94 97 94 94 90 90 94 100 100 100 97 90 87 100 100 100 100 100 100 100 100 100 100 100 100 100 100 100 97 100 100 100 100 100 65 13 0
58 55 58 68 77 84 87 81 81 77 81 81 87 87 94 94 90 94 94 90 90 94 100 100 100 100 100 100 100 100 100 100 100 97 100 97 97 100 100 97 77 19 3
48 55 58 68 74 81 77 68 71 61 65 61 58 65 58 68 68 74 71 65 61 52 68 94 97 97 100 100 100 100 100 100 100 100 100 100 100 100 100 90 84 16 0
84 81 77 81 77 77 71 68 61 48 48 45 48 48 42 39 45 39 45 48 35 32 35 35 65 94 97 100 100 100 100 100 100 100 100 100 100 94 94 65 52 19 0
87 87 87 81 87 77 71 61 55 42 39 35 42 39 35 29 26 26 29 19 16 13 10 6 19 23 77 97 100 100 100 100 100 100 100 100 100 97 81 52 42 16 3
71 71 74 74 74 68 68 61 52 35 35 26 23 19 16 16 13 23 16 13 10 6 6 13 10 19 35 42 81 97 97 100 100 100 100 100 100 100 84 52 29 10 3
29 35 52 48 61 65 58 58 32 26 26 29 23 19 6 6 3 6 13 13 10 3 3 3 3 3 35 45 35 39 87 97 100 100 100 100 100 90 87 68 29 3 0
13 19 23 29 35 48 52 52 39 26 29 23 19 16 6 6 0 0 0 3 3 3 3 3 3 0 0 13 29 3 19 39 61 84 100 100 71 35 58 65 48 10 0
0 6 3 13 16 23 29 35 39 29 26 23 13 10 3 0 0 0 0 0 0 3 3 0 0 0 0 3 0 0 0 0 3 35 55 84 84 29 16 35 87 52 3
0 3 3 6 3 6 10 19 32 39 32 29 23 6 0 0 0 0 0 0 0 0 0 0 0 0 0 0 0 0 0 0 0 0 3 26 45 48 23 32 81 97 68
0 0 0 6 6 3 6 3 13 23 26 26 19 6 0 0 3 0 0 0 0 0 0 0 0 0 0 0 0 0 0 0 0 0 0 0 0 10 13 32 65 84 87
0 0 0 0 3 3 3 3 6 10 16 19 16 13 3 0 0 0 0 0 0 0 0 0 0 0 0 0 0 0 0 0 0 0 0 0 0 0 0 6 23 35 48
0 0 0 0 0 0 0 3 3 6 10 10 3 6 6 3 0 0 0 0 0 0 0 0 0 0 0 0 0 0 0 0 0 0 0 0 0 0 0 0 0 0 0
0 0 0 0 0 0 0 3 0 0 0 0 3 3 3 3 0 0 0 0 0 0 0 0 0 0 0 0 0 0 0 0 0 0 0 0 0 0 0 0 0 0 0
0 0 0 0 0 0 0 0 0 0 0 0 3 3 3 0 0 0 0 0 0 0 0 0 0 0 0 0 0 0 0 0 0 0 0 0 0 0 0 0 0 0 0
0 0 0 0 0 0 0 0 0 0 0 0 3 0 0 3 0 0 0 0 0 0 0 0 0 0 0 0 0 0 0 0 0 0 0 0 0 0 0 0 0 0 0
0 0 0 0 0 0 0 0 0 0 0 0 0 0 0 0 0 0 0 0 0 0 0 0 0 0 0 0 0 0 0 0 0 0 0 0 0 0 0 0 0 0 0
0 0 0 0 0 0 0 0 0 0 0 0 0 0 0 0 0 0 0 0 0 0 0 0 0 0 0 0 0 0 0 0 0 0 0 0 0 0 0 0 0 0 0
0 0 0 0 0 0 0 0 0 0 0 0 0 0 0 0 0 0 0 0 0 0 0 0 0 0 0 0 0 0 0 0 0 0 0 0 0 0 0 0 0 0 0
0 0 0 0 0 0 0 0 0 0 0 0 0 0 0 0 0 0 0 0 0 0 0 0 0 0 0 0 0 0 0 0 0 0 0 0 0 0 0 0 0 0 0
0 0 0 0 0 0 0 0 0 0 0 0 0 0 0 0 0 0 0 0 0 0 0 0 0 0 0 0 0 0 0 0 0 0 0 0 0 0 0 0 0 0 0
0 0 0 0 0 0 0 0 0 0 0 0 0 0 0 0 0 0 0 0 0 0 0 0 0 0 0 0 0 0 0 0 0 0 0 0 0 0 0 0 0 0 0
0 0 0 0 0 0 0 0 0 0 0 0 0 0 0 0 0 0 0 0 0 0 0 0 0 0 0 0 0 0 0 0 0 0 0 0 0 0 0 0 0 0 0
0 0 0 0 0 0 0 0 0 0 0 0 0 0 0 0 0 0 0 0 0 0 0 0 0 0 0 0 0 0 0 0 0 0 0 0 0 0 0 0 0 0 0
0 0 0 0 0 0 0 0 0 0 0 0 0 0 0 0 0 0 0 0 0 0 0 0 0 0 0 0 0 0 0 0 0 0 0 0 0 0 0 0 0 0 0

GEFSMA_con_cape1000_042.txt.gz
Probability
97 94 97 100 100 97 100 100 100 100 100 100 94 94 97 97 100 100 100 100 100 100 100 100 100 100 100 100 100 100 100 100 100 100 100 100 100 100 97 100 90 68 32
97 97 97 100 100 100 97 100 100 100 100 100 97 97 94 94 94 94 97 100 100 100 100 100 100 100 100 100 100 100 100 100 100 100 100 100 100 100 100 97 90 74 42
97 97 94 100 100 100 100 100 94 94 97 94 94 90 90 90 81 81 90 94 94 97 100 100 100 100 100 100 100 100 100 100 100 100 100 100 97 94 94 97 94 77 39
90 100 97 100 100 100 100 100 94 94 90 90 84 87 65 77 68 71 61 81 81 81 81 100 97 97 97 97 100 100 100 100 100 100 100 100 100 97 94 87 87 71 16
74 81 90 94 100 100 100 100 97 94 90 87 77 71 61 71 65 45 42 58 68 77 74 81 90 97 90 90 100 100 100 100 100 100 100 100 100 100 94 84 77 55 13
55 61 61 71 74 74 81 90 94 97 94 90 71 65 65 61 55 48 42 39 45 55 65 58 74 74 90 90 97 97 100 100 100 100 100 100 100 100 90 61 48 42 19
32 45 35 45 61 65 71 68 71 81 84 87 77 71 65 68 52 55 39 45 32 32 42 52 61 65 71 74 65 90 97 97 100 100 100 100 100 100 90 65 32 26 10
19 10 19 19 23 58 61 74 84 71 55 74 71 71 58 52 68 45 52 55 42 39 26 26 45 65 55 55 32 45 84 90 97 100 100 100 100 97 94 77 45 19 13
16 19 26 19 32 23 23 45 61 65 55 65 74 68 61 55 65 68 61 48 48 45 32 32 39 42 58 58 68 29 55 61 71 87 90 90 90 84 87 84 68 19 6
16 13 19 19 19 16 26 29 19 45 68 52 65 81 77 71 61 55 58 55 48 39 32 23 19 19 29 32 42 13 10 10 26 52 65 68 74 71 58 74 87 68 16
6 0 3 19 23 19 16 29 45 48 39 58 52 48 68 84 74 65 48 58 52 39 32 35 26 32 13 19 52 3 3 3 0 6 19 26 45 61 68 77 90 94 74
6 0 0 3 6 13 16 23 29 35 35 52 58 61 68 77 68 61 58 61 58 45 39 45 35 42 29 16 3 0 3 0 0 0 0 6 13 32 52 68 84 81 87
3 3 0 3 3 6 10 10 23 26 32 42 55 58 52 65 71 77 74 58 68 65 55 39 35 42 6 16 6 0 0 0 0 0 0 0 0 3 6 19 26 55 61
3 3 3 3 3 6 3 10 13 23 32 42 42 52 58 65 81 81 74 65 61 71 55 16 26 23 13 16 0 0 0 0 0 0 0 0 0 0 0 0 0 0 3
6 0 0 0 0 0 3 3 10 23 35 39 42 48 58 65 84 81 81 84 61 58 55 52 26 16 13 13 0 0 0 0 0 0 0 0 0 0 0 0 0 0 0
23 0 0 0 0 3 0 3 13 16 29 39 48 52 61 61 71 71 84 84 84 68 68 45 23 6 6 0 0 0 0 0 0 0 0 0 0 0 0 0 0 0 0
19 10 0 0 0 0 3 6 10 10 10 23 32 32 48 58 81 81 84 84 84 84 65 23 6 6 3 3 0 3 0 0 0 0 0 0 0 0 0 0 0 0 0
19 6 0 0 0 0 3 3 6 10 10 13 16 26 32 35 65 71 74 81 74 71 39 13 6 3 0 0 0 3 0 0 0 0 0 0 0 0 0 0 0 0 0
13 3 0 0 0 0 0 0 0 0 3 6 6 13 10 19 48 45 55 42 39 13 19 6 0 0 0 0 0 0 0 0 0 0 0 0 0 0 0 0 0 0 0
3 6 6 0 0 0 0 0 0 0 0 0 3 3 3 6 23 19 13 16 13 6 6 3 0 0 0 0 0 0 0 0 0 0 0 0 0 0 0 0 0 0 0
0 0 6 0 0 0 0 0 0 0 0 0 0 0 0 0 0 3 3 3 6 6 3 0 0 0 0 0 0 0 0 0 0 0 0 0 0 0 0 0 0 0 0
0 0 0 0 0 0 0 0 0 0 0 0 0 0 0 0 0 0 0 0 0 3 3 0 0 0 0 0 0 0 0 0 0 0 0 0 0 0 0 0 0 0 0
0 0 0 0 0 0 0 0 0 0 0 0 0 0 0 0 0 0 0 0 0 0 0 0 0 0 0 0 0 0 0 0 0 0 0 0 0 0 0 0 0 0 0
0 0 0 0 0 0 0 0 0 0 0 0 0 0 0 0 0 0 0 0 0 0 0 0 0 0 0 0 0 0 0 0 0 0 0 0 0 0 0 0 0 0 0
0 0 0 0 0 0 0 0 0 0 0 0 0 0 0 0 0 0 0 0 0 0 0 0 0 0 0 0 0 0 0 0 0 0 0 0 0 0 0 0 0 0 0
0 0 0 0 0 0 0 0 0 0 0 0 0 0 0 0 0 0 0 0 0 0 0 0 0 0 0 0 0 0 0 0 0 0 0 0 0 0 0 0 0 0 0

GEFSMA_con_cape1000_048.txt.gz
Probability
100 100 100 100 100 100 100 97 100 100 100 100 97 97 100 94 97 100 100 100 100 100 100 100 100 100 100 100 100 100 100 100 100 100 100 94 97 100 100 100 97 81 74
97 97 97 100 100 100 100 100 100 100 100 100 94 90 90 94 97 97 97 100 100 100 100 100 100 100 100 100 100 100 100 100 100 97 97 97 97 97 97 100 100 97 74
97 97 97 97 100 100 100 100 100 100 100 97 94 90 90 90 94 90 90 90 87 97 100 100 100 100 100 100 100 100 100 100 97 97 97 97 97 97 97 97 100 100 65
84 94 90 87 90 87 87 90 97 97 97 97 94 84 81 84 87 87 84 68 77 74 90 97 100 94 97 100 100 100 100 100 97 97 97 100 100 97 94 90 97 90 42
74 81 77 81 81 81 84 77 90 94 90 90 84 71 81 77 74 71 68 65 58 58 65 81 94 97 94 100 100 100 100 100 100 97 100 100 100 100 94 84 74 61 32
68 77 68 84 68 65 77 87 90 90 90 90 74 71 81 81 81 65 61 55 48 42 39 48 71 77 94 94 97 100 100 100 100 100 100 100 100 100 97 84 61 45 29
65 58 52 61 61 65 77 55 71 71 71 87 84 71 68 74 81 77 58 55 45 45 42 45 55 55 65 77 81 94 94 94 100 100 100 100 100 100 97 94 58 42 23
45 16 45 42 52 65 65 65 68 74 48 65 74 58 58 52 84 65 74 65 52 55 48 48 48 58 52 52 58 65 77 87 97 100 100 97 100 100 100 94 87 32 16
26 45 42 42 48 48 48 65 58 55 52 52 52 55 48 35 48 65 74 68 81 71 68 58 55 58 58 52 48 42 65 71 81 84 94 97 90 90 87 94 90 55 19
45 39 35 35 48 52 55 52 45 35 45 35 42 55 48 48 39 35 61 65 87 74 71 58 35 52 48 42 39 23 42 32 35 68 77 84 81 77 74 71 94 90 32
68 42 39 39 42 48 55 48 48 48 39 32 26 35 42 52 52 26 23 58 65 77 81 77 58 61 58 48 39 19 13 10 10 16 19 32 42 65 68 61 77 90 90
84 45 29 35 35 42 42 42 39 29 35 39 35 32 39 39 45 39 35 42 48 61 87 81 68 68 55 42 23 3 3 0 0 3 6 10 19 26 32 42 52 68 74
74 81 42 55 45 55 48 48 48 35 29 35 39 35 39 39 32 35 29 26 29 52 71 74 71 65 45 39 6 0 0 0 0 0 0 0 0 3 6 13 29 35 52
84 81 71 61 55 58 45 58 39 39 42 39 26 35 39 39 45 35 42 35 19 29 61 65 61 61 39 32 0 0 0 0 0 0 0 0 0 3 3 3 3 3 6
48 71 61 61 68 65 58 61 45 48 45 39 29 32 35 32 42 45 45 42 32 13 26 52 55 48 35 10 0 0 0 0 0 0 0 0 0 0 0 0 0 0 0
55 48 58 68 68 68 65 65 52 42 42 39 42 48 45 42 42 45 52 58 61 26 6 45 39 32 16 3 0 0 0 0 0 0 0 0 0 0 0 0 0 0 0
29 35 45 45 61 61 68 65 39 39 32 29 35 29 35 39 39 42 48 58 55 39 6 19 26 26 6 0 0 0 0 0 0 0 0 0 0 0 0 0 0 0 0
6 6 13 29 29 16 48 35 16 10 19 16 16 26 23 10 29 45 42 52 39 48 10 6 16 16 3 0 0 0 0 0 0 0 0 0 0 0 0 0 0 0 0
0 3 3 6 10 16 16 19 6 10 13 10 6 10 6 10 16 26 29 39 35 6 3 3 6 0 0 0 0 0 0 0 0 0 0 0 0 0 0 0 0 0 0
0 0 0 0 6 0 6 6 6 0 3 3 3 0 3 3 6 16 10 10 13 13 6 0 0 3 0 0 0 0 0 0 0 0 0 0 0 0 0 0 0 0 0
0 0 0 0 0 0 0 0 3 0 0 0 0 0 0 0 0 0 0 3 6 6 0 0 0 0 0 0 0 0 0 0 0 0 0 0 0 0 0 0 0 0 0
0 0 0 0 0 0 0 0 0 0 0 0 0 0 0 0 0 0 0 0 0 0 0 0 0 0 0 0 0 0 0 0 0 0 0 0 0 0 0 0 0 0 0
0 0 0 0 0 0 0 0 0 0 0 0 0 0 0 0 0 0 0 0 0 0 0 0 0 0 0 0 0 0 0 0 0 0 0 0 0 0 0 0 0 0 0
0 0 0 0 0 0 0 0 0 0 0 0 0 0 0 0 0 0 0 0 0 0 0 0 0 0 0 0 0 0 0 0 0 0 0 0 0 0 0 0 0 0 0
0 0 0 0 0 0 0 0 0 0 0 0 0 0 0 0 0 0 0 0 0 0 0 0 0 0 0 0 0 0 0 0 0 0 0 0 0 0 0 0 0 0 0
0 0 0 0 0 0 0 0 0 0 0 0 0 0 0 0 0 0 0 0 0 0 0 0 0 0 0 0 0 0 0 0 0 0 0 0 0 0 0 0 0 0 0

GEFSMA_con_cape1000_054.txt.gz
Probability
94 87 77 68 74 84 84 84 87 84 87 90 94 87 90 87 81 77 74 94 87 87 87 84 84 90 94 100 100 100 100 100 100 100 100 100 100 100 100 100 94 90 87
81 77 55 61 52 61 65 58 61 65 61 87 84 81 77 71 68 74 77 74 81 81 81 81 81 84 87 90 94 100 100 100 100 100 100 100 100 100 100 100 97 94 77
77 55 42 39 35 42 48 35 35 45 45 48 58 61 61 65 68 68 61 55 58 77 81 77 74 77 84 87 94 94 100 100 100 100 100 100 100 100 100 100 100 94 81
61 42 35 32 35 32 29 23 23 23 19 23 19 26 29 29 39 52 55 52 48 55 68 81 77 71 74 90 90 94 100 100 100 100 100 100 100 100 100 94 100 90 71
39 19 23 19 23 19 19 19 16 19 19 19 16 19 16 16 19 29 32 39 42 35 35 55 71 74 81 87 90 90 94 97 100 100 100 100 100 97 97 90 90 74 65
19 13 13 19 19 13 13 13 13 6 6 6 13 19 6 6 10 13 13 19 23 29 32 29 32 52 81 77 77 81 84 90 94 100 100 100 97 97 97 94 87 74 65
13 10 10 0 0 0 0 0 0 0 6 0 0 0 0 0 0 6 10 10 13 16 23 19 23 26 29 45 58 61 71 74 87 84 90 97 97 97 97 97 90 65 52
10 10 3 0 0 0 3 0 0 0 0 3 0 0 0 0 0 3 0 0 6 6 6 16 16 16 26 23 26 35 65 65 68 84 81 94 90 94 100 97 87 68 45
6 6 3 0 0 0 0 0 0 0 0 0 0 0 0 0 0 0 0 0 0 0 0 3 3 13 16 13 10 23 39 35 42 65 71 68 55 65 77 81 90 81 55
6 3 3 0 0 0 0 0 3 0 0 0 0 0 0 0 0 0 0 0 0 0 0 0 0 10 16 19 13 10 13 10 32 52 61 55 52 55 61 74 77 81 74
3 3 3 0 0 0 0 0 0 0 0 0 0 0 0 0 0 0 0 0 0 0 0 0 0 0 0 6 6 10 10 6 10 16 16 19 35 48 61 68 77 84 90
0 0 0 0 0 0 0 0 0 0 0 0 0 0 0 0 0 0 0 0 0 0 0 0 0 0 0 0 3 10 10 6 3 3 3 6 10 13 23 29 52 68 81
0 0 0 0 0 0 0 0 0 0 0 0 0 0 0 0 0 0 0 0 0 0 0 0 0 0 0 0 3 6 0 0 0 0 0 3 6 6 6 13 23 32 52
0 0 0 0 0 0 0 0 0 0 0 0 0 0 0 0 0 0 0 0 0 0 0 0 0 0 0 0 0 0 0 0 0 0 0 0 0 0 0 0 6 10 13
0 0 0 0 0 0 0 0 0 0 0 0 0 0 0 0 0 0 0 0 0 0 0 0 0 0 0 0 0 0 0 0 0 0 0 0 0 0 0 0 0 0 0
0 0 0 0 0 0 0 0 0 0 0 0 0 0 0 0 0 0 0 0 0 0 0 0 0 0 0 0 0 0 0 0 0 0 0 0 0 0 0 0 0 0 0
0 0 0 0 0 0 0 0 0 0 0 0 0 0 0 0 0 0 0 0 0 0 0 0 0 0 0 0 0 0 0 0 0 0 0 0 0 0 0 0 0 0 0
0 0 0 0 0 0 0 0 0 0 0 0 0 0 0 0 0 0 0 0 0 0 0 0 0 0 0 0 0 0 0 0 0 0 0 0 0 0 0 0 0 0 0
0 0 0 0 0 0 0 0 0 0 0 0 0 0 0 0 0 0 0 0 0 0 0 0 0 0 0 0 0 0 0 0 0 0 0 0 0 0 0 0 0 0 0
0 0 0 0 0 0 0 0 0 0 0 0 0 0 0 0 0 0 0 0 0 0 0 0 0 0 0 0 0 0 0 0 0 0 0 0 0 0 0 0 0 0 0
0 0 0 0 0 0 0 0 0 0 0 0 0 0 0 0 0 0 0 0 0 0 0 0 0 0 0 0 0 0 0 0 0 0 0 0 0 0 0 0 0 0 0
0 0 0 0 0 0 0 0 0 0 0 0 0 0 0 0 0 0 0 0 0 0 0 0 0 0 0 0 0 0 0 0 0 0 0 0 0 0 0 0 0 0 0
0 0 0 0 0 0 0 0 0 0 0 0 0 0 0 0 0 0 0 0 0 0 0 0 0 0 0 0 0 0 0 0 0 0 0 0 0 0 0 0 0 0 0
0 0 0 0 0 0 0 0 0 0 0 0 0 0 0 0 0 0 0 0 0 0 0 0 0 0 0 0 0 0 0 0 0 0 0 0 0 0 0 0 0 0 0
0 0 0 0 0 0 0 0 0 0 0 0 0 0 0 0 0 0 0 0 0 0 0 0 0 0 0 0 0 0 0 0 0 0 0 0 0 0 0 0 0 0 0
0 0 0 0 0 0 0 0 0 0 0 0 0 0 0 0 0 0 0 0 0 0 0 0 0 0 0 0 0 0 0 0 0 0 0 0 0 0 0 0 0 0 0

GEFSMA_con_cape1000_060.txt.gz
Probability
90 87 87 84 77 74 74 74 81 81 77 77 81 84 94 97 94 97 90 94 97 97 97 90 87 87 84 81 94 94 90 97 97 97 100 100 94 97 100 100 90 87 84
77 77 74 61 48 48 52 52 58 55 61 68 68 71 77 87 87 87 84 81 90 94 97 90 87 84 77 77 81 87 94 94 97 94 94 94 94 94 97 100 97 87 84
77 77 61 35 19 19 16 19 23 26 26 29 32 39 52 61 58 58 74 84 81 74 84 90 87 77 68 71 74 81 81 87 90 94 97 97 90 90 90 90 87 74 58
68 48 42 23 16 16 16 13 10 13 16 16 16 13 23 32 29 32 42 55 58 55 74 81 81 68 74 68 71 71 77 81 87 90 90 94 94 90 90 90 81 48 39
52 26 16 13 13 13 13 13 6 3 6 6 6 6 6 13 10 13 23 35 39 48 58 61 77 77 77 71 74 68 81 77 87 90 87 90 90 87 84 87 77 52 29
29 16 10 10 10 6 6 3 0 0 0 3 6 6 3 3 3 6 6 6 10 23 35 35 52 55 65 77 81 74 71 81 87 87 90 97 90 90 81 77 68 55 39
10 10 6 6 6 3 3 0 0 0 0 0 0 0 0 0 0 0 3 3 3 6 10 26 29 29 35 45 61 74 77 81 84 84 84 71 74 71 74 74 58 45 39
0 6 6 6 6 0 0 0 0 0 0 0 0 0 0 0 0 0 0 0 0 3 3 3 6 16 23 26 23 32 61 68 71 81 68 68 65 61 58 61 58 39 29
0 3 6 3 0 0 0 0 0 0 0 0 0 0 0 0 0 0 0 0 0 0 0 0 0 3 10 23 26 13 42 55 71 77 77 55 45 39 42 48 55 39 26
0 3 3 0 0 0 0 0 0 0 0 0 0 0 0 0 0 0 0 0 0 0 0 0 0 0 0 13 16 10 16 19 42 55 68 61 39 35 23 32 48 48 45
0 0 0 0 0 0 0 0 0 0 0 0 0 0 0 0 0 0 0 0 0 0 0 0 0 0 0 0 6 13 6 10 10 26 45 45 39 26 26 32 39 58 68
0 0 0 0 0 0 0 0 0 0 0 0 0 0 0 0 0 0 0 0 0 0 0 0 0 0 0 0 0 0 3 0 0 6 13 23 19 16 10 16 19 32 52
0 0 0 0 0 0 0 0 0 0 0 0 0 0 0 0 0 0 0 0 0 0 0 0 0 0 0 0 0 0 0 0 0 0 3 3 6 6 6 6 10 16 29
0 0 0 0 0 0 0 0 0 0 0 0 0 0 0 0 0 0 0 0 0 0 0 0 0 3 0 0 0 0 3 0 0 0 0 0 0 0 0 0 3 3 3
0 0 0 0 0 0 0 0 0 0 0 0 0 0 0 0 0 0 0 0 0 0 0 0 0 0 0 0 0 0 0 0 0 0 0 0 0 0 0 0 0 0 0
0 0 0 0 0 0 0 0 0 0 0 0 0 0 0 0 0 0 0 0 0 0 0 0 0 0 0 0 0 0 0 0 0 0 0 0 0 0 0 0 0 0 0
0 0 0 0 0 0 0 0 0 0 0 0 0 0 0 0 0 0 0 0 0 0 0 0 0 0 0 0 0 0 0 0 0 0 0 0 0 0 0 0 0 0 0
0 0 0 0 0 0 0 0 0 0 0 0 0 0 0 0 0 0 0 0 0 0 0 0 0 0 0 0 0 0 0 0 0 0 0 0 0 0 0 0 0 0 0
0 0 0 0 0 0 0 0 0 0 0 0 0 0 0 0 0 0 0 0 0 0 0 0 0 0 0 0 0 0 0 0 0 0 0 0 0 0 0 0 0 0 0
0 0 0 0 0 0 0 0 0 0 0 0 0 0 0 0 0 0 0 0 0 0 0 0 0 0 0 0 0 0 0 0 0 0 0 0 0 0 0 0 0 0 0
0 0 0 0 0 0 0 0 0 0 0 0 0 0 0 0 0 0 0 0 0 0 0 0 0 0 0 0 0 0 0 0 0 0 0 0 0 0 0 0 0 0 0
0 0 0 0 0 0 0 0 0 0 0 0 0 0 0 0 0 0 0 0 0 0 0 0 0 0 0 0 0 0 0 0 0 0 0 0 0 0 0 0 0 0 0
0 0 0 0 0 0 0 0 0 0 0 0 0 0 0 0 0 0 0 0 0 0 0 0 0 0 0 0 0 0 0 0 0 0 0 0 0 0 0 0 0 0 0
0 0 0 0 0 0 0 0 0 0 0 0 0 0 0 0 0 0 0 0 0 0 0 0 0 0 0 0 0 0 0 0 0 0 0 0 0 0 0 0 0 0 0
0 0 0 0 0 0 0 0 0 0 0 0 0 0 0 0 0 0 0 0 0 0 0 0 0 0 0 0 0 0 0 0 0 0 0 0 0 0 0 0 0 0 0
0 0 0 0 0 0 0 0 0 0 0 0 0 0 0 0 0 0 0 0 0 0 0 0 0 0 0 0 0 0 0 0 0 0 0 0 0 0 0 0 0 0 0

GEFSMA_con_cape1000_066.txt.gz
Probability
97 97 97 97 90 94 94 90 90 90 97 94 94 87 87 87 87 90 100 100 100 100 100 100 100 100 100 100 97 100 94 94 90 90 94 100 100 100 100 100 100 100 100
97 97 97 97 94 97 90 87 84 87 87 90 87 94 90 81 87 90 90 94 100 100 100 100 100 100 100 100 97 97 90 87 90 87 90 97 97 100 100 100 97 97 90
87 90 84 87 90 87 84 84 77 84 84 68 68 68 74 77 77 81 84 84 87 97 100 100 100 100 100 97 84 90 87 87 84 94 87 84 94 94 97 94 94 84 81
74 84 81 74 77 74 68 71 71 61 61 48 42 48 58 58 58 65 58 87 84 81 87 90 90 94 94 90 90 90 87 84 81 87 84 77 84 84 81 84 87 84 52
55 68 68 58 65 61 55 45 48 48 42 39 32 45 42 45 42 42 42 45 52 71 71 87 81 87 84 90 94 90 87 84 81 81 77 94 87 87 71 65 71 68 39
48 55 48 61 39 29 45 35 35 42 35 29 6 6 16 19 29 26 23 29 32 35 39 39 58 77 77 87 87 90 84 87 84 81 77 81 77 74 68 55 52 55 35
39 48 48 45 45 26 35 23 29 23 16 6 13 6 3 3 13 16 19 19 19 23 29 42 52 65 68 65 71 84 84 90 90 81 81 81 68 65 61 71 45 32 29
26 29 35 42 42 42 39 29 32 13 10 6 3 6 3 10 16 3 13 16 13 26 29 29 45 61 68 71 65 65 81 84 87 84 84 71 71 61 61 55 39 26 23
23 32 35 42 42 35 26 42 48 23 6 6 10 6 0 0 6 6 10 6 19 23 23 23 26 35 39 58 71 45 61 71 84 74 84 84 58 42 42 52 58 32 19
19 19 29 29 39 29 32 26 16 13 19 3 3 6 0 3 3 3 6 6 13 16 16 10 10 26 32 42 61 48 42 39 61 77 90 84 77 42 35 42 55 55 35
13 10 16 26 29 23 29 29 23 29 26 19 13 6 0 6 0 3 0 10 10 6 3 3 6 13 26 29 58 45 16 10 19 35 68 74 71 65 52 48 55 52 55
6 6 6 10 19 19 26 29 29 32 35 26 16 16 10 6 3 0 0 0 3 6 3 3 3 13 23 26 23 6 10 0 0 3 13 42 65 71 58 48 48 52 58
0 3 3 3 13 16 13 23 32 26 32 42 39 29 19 13 3 3 0 0 0 0 0 3 10 3 10 13 19 0 0 0 0 0 0 3 16 35 32 42 39 39 45
0 0 0 0 3 0 3 13 19 19 26 39 19 35 39 19 19 10 6 6 0 0 0 0 0 3 3 10 0 0 13 0 0 0 0 0 0 6 10 10 13 19 19
0 0 0 0 0 0 0 0 6 6 10 19 23 19 35 23 26 26 13 10 6 3 0 0 6 6 6 10 0 6 13 0 0 0 0 0 0 0 0 0 0 0 0
0 0 0 0 0 0 0 0 0 0 0 0 3 13 19 19 26 19 23 23 19 10 3 0 6 6 10 0 0 6 6 0 0 0 0 0 0 0 0 0 0 0 0
0 0 0 0 0 0 0 0 0 0 0 0 0 0 0 6 23 23 13 19 23 16 10 6 13 19 23 6 3 0 0 0 0 0 0 0 0 0 0 0 0 0 0
0 0 0 0 0 0 0 0 0 0 0 0 0 0 0 0 3 19 16 6 16 19 13 10 16 16 23 23 10 0 0 0 0 0 0 0 0 0 0 0 0 0 0
0 0 0 0 0 0 0 0 0 0 0 0 0 0 0 0 0 3 3 13 10 3 13 19 19 23 16 3 0 0 0 0 0 0 0 0 0 0 0 0 0 0 0
0 0 0 0 0 0 0 0 0 0 0 0 0 0 0 0 0 0 0 0 3 3 3 10 19 23 16 6 0 0 0 0 0 0 0 0 0 0 0 0 0 0 0
0 0 0 0 0 0 0 0 0 0 0 0 0 0 0 0 0 0 0 0 0 3 3 3 16 13 19 10 0 3 0 0 0 0 0 0 0 0 0 0 0 0 0
0 0 0 0 0 0 0 0 0 0 0 0 0 0 0 0 0 0 0 0 0 0 0 3 13 10 13 16 10 0 0 0 0 0 0 0 0 0 0 0 0 0 0
0 0 0 0 0 0 0 0 0 0 0 0 0 0 0 0 0 0 0 0 0 0 0 0 3 3 10 19 10 0 3 0 0 0 0 0 0 0 0 0 0 0 0
3 3 0 0 0 0 0 0 0 0 0 0 0 0 0 0 0 0 0 0 0 0 0 0 0 6 3 19 26 13 3 0 0 0 0 0 0 0 0 0 0 0 0
0 0 0 0 0 0 0 0 0 0 0 0 0 0 0 0 0 0 0 0 0 0 0 0 0 0 0 0 0 6 0 0 0 0 0 0 0 0 0 0 0 0 0
0 0 0 0 0 0 0 0 0 0 0 0 0 0 0 0 0 0 0 0 0 0 0 0 0 0 0 0 0 0 3 0 0 0 0 0 0 0 0 0 0 0 0

GEFSMA_con_cape1000_072.txt.gz
Probability
97 97 94 97 94 90 94 97 94 90 90 90 77 68 68 65 52 61 71 90 94 97 97 100 100 100 100 100 100 100 100 100 100 97 97 94 100 100 100 97 100 100 97
94 90 90 90 87 87 84 81 84 81 81 87 77 71 71 68 55 58 61 87 100 100 97 97 100 100 100 100 100 100 100 100 94 94 94 90 97 100 100 100 100 100 100
90 100 87 90 84 81 81 81 81 81 71 71 74 65 58 58 55 65 68 74 87 100 97 100 100 100 100 100 100 100 100 100 94 90 94 90 90 94 97 100 100 100 90
77 90 77 58 61 71 74 77 71 68 61 58 52 55 55 58 61 68 74 74 74 71 94 100 100 100 100 100 100 100 100 97 97 90 81 84 87 87 84 90 100 94 84
74 65 58 45 52 55 55 45 45 42 39 52 35 52 52 52 52 52 65 71 77 84 84 97 100 100 100 97 100 100 100 97 97 90 77 77 84 81 71 81 77 74 61
61 58 55 45 42 45 39 39 39 42 45 45 6 10 35 42 65 61 55 48 58 65 68 77 87 90 97 100 100 100 97 97 97 90 84 81 87 71 58 52 48 55 39
45 52 45 52 39 35 32 29 23 26 32 35 26 16 16 19 16 32 35 23 26 29 39 65 68 71 68 94 97 100 97 94 87 84 87 87 94 74 68 52 29 26 26
32 16 42 35 26 29 26 19 23 19 19 29 10 13 6 13 23 6 16 13 16 23 26 29 45 58 55 58 35 84 94 94 87 87 87 87 84 68 58 52 32 23 13
29 32 26 19 29 19 10 19 23 26 19 26 16 10 3 0 3 16 13 10 23 23 23 26 48 58 52 55 55 26 81 81 94 90 90 87 71 52 48 55 42 23 16
19 19 19 26 19 19 16 16 13 23 23 19 26 29 26 32 6 6 19 29 26 26 13 10 19 55 48 48 52 52 55 58 77 84 87 90 77 58 45 48 45 32 26
16 10 13 10 16 16 13 13 16 23 19 23 19 29 26 32 13 10 3 13 23 23 32 26 29 23 42 39 55 55 48 35 39 65 84 77 77 68 61 52 48 52 42
10 6 6 10 6 10 13 13 13 16 23 19 32 26 19 16 13 13 6 6 10 23 23 23 19 26 35 39 29 35 32 10 13 19 35 58 61 65 65 55 55 55 58
6 3 0 3 3 3 3 6 10 6 10 10 23 29 19 23 23 16 10 6 6 19 23 29 23 45 23 26 10 6 10 0 0 0 3 10 23 35 48 55 55 61 61
0 0 0 0 0 0 0 3 6 6 10 6 6 13 16 19 23 16 10 16 3 3 10 16 35 26 19 23 3 3 10 0 0 0 0 0 3 3 10 26 26 32 29
0 0 0 0 0 0 0 0 0 0 3 6 6 3 6 13 16 13 13 6 3 0 0 23 35 48 35 19 0 3 10 0 0 0 0 0 0 0 0 3 3 6 3
3 0 0 0 0 0 0 0 0 0 0 0 6 3 3 3 6 6 10 10 13 3 6 16 35 32 19 3 0 10 3 0 0 0 0 0 0 0 0 0 0 0 0
3 3 3 3 0 0 0 0 0 0 0 0 0 0 3 3 0 0 6 6 10 10 6 10 13 23 23 6 3 3 0 0 0 0 0 0 0 0 0 0 0 0 0
3 3 3 3 0 0 0 0 0 0 0 0 0 0 0 0 0 0 0 0 0 3 3 0 3 6 13 10 13 0 0 0 0 0 0 0 0 0 0 0 0 0 0
0 0 3 0 0 0 0 0 0 0 0 0 0 0 0 0 0 0 0 0 0 0 0 0 3 0 0 3 3 0 0 0 0 0 0 0 0 0 0 0 0 0 0
0 0 0 0 0 0 0 0 0 0 0 0 0 0 0 0 0 0 0 0 0 0 0 0 6 0 0 0 0 0 0 0 0 0 0 0 0 0 0 0 0 0 0
0 0 0 0 0 0 0 0 0 0 0 0 0 0 0 0 0 0 0 0 0 0 0 0 0 0 0 0 0 0 0 0 0 0 0 0 0 0 0 0 0 0 0
0 0 0 0 0 0 0 0 0 0 0 0 0 0 0 0 0 0 0 0 0 0 0 0 0 3 0 0 0 0 0 0 0 0 0 0 0 0 0 0 0 0 0
0 0 0 0 0 0 0 0 0 0 0 0 0 0 0 0 0 0 0 0 0 0 0 0 3 3 0 0 0 0 0 0 0 0 0 0 0 0 0 0 0 0 0
0 0 0 0 0 0 0 0 0 0 0 0 0 0 0 0 0 0 0 0 0 0 0 0 0 0 0 0 0 0 0 0 0 0 0 0 0 0 0 0 0 0 0
0 0 0 0 0 0 0 0 0 0 0 0 0 0 0 0 0 0 0 0 0 0 0 0 0 0 0 0 0 0 0 0 0 0 0 0 0 0 0 0 0 0 0
0 0 0 0 0 0 0 0 0 0 0 0 0 0 0 0 0 0 0 0 0 0 0 0 0 0 0 0 0 0 0 0 0 0 0 0 0 0 0 0 0 0 0

GEFSMA_con_cape1000_078.txt.gz
Probability
74 71 61 61 74 81 74 74 68 74 74 71 55 52 48 42 52 32 16 58 90 94 90 94 94 94 97 100 100 100 100 100 100 100 100 100 100 100 97 97 97 94 94
55 48 48 42 48 58 61 61 58 42 39 45 45 39 39 45 42 23 19 48 87 90 94 90 90 84 94 100 100 100 100 100 100 100 100 100 100 100 100 100 97 97 90
42 39 35 29 35 29 32 32 29 32 26 26 23 29 19 23 35 35 29 23 32 65 81 84 87 84 90 97 100 100 100 100 100 100 100 100 97 94 97 100 97 97 81
35 26 26 23 19 16 13 16 19 16 13 10 16 16 19 16 13 13 19 19 26 29 68 74 84 90 90 94 100 100 100 100 100 100 100 97 94 90 90 97 97 87 65
19 6 6 10 6 6 6 10 6 6 6 6 6 6 6 6 6 6 13 13 13 16 23 61 87 87 94 97 100 100 100 100 100 100 100 100 97 87 84 84 87 74 52
10 0 0 0 0 3 3 6 3 3 3 3 6 6 6 6 3 6 6 6 6 10 13 10 42 77 90 97 100 100 100 100 100 100 100 100 97 87 71 65 61 52 39
6 3 0 0 0 0 0 3 3 3 3 3 3 3 0 0 3 3 3 3 3 3 6 10 6 10 39 94 100 100 100 100 100 100 100 97 97 81 68 65 39 29 26
3 0 0 0 0 0 0 0 0 0 3 0 0 0 0 0 0 0 3 3 3 3 6 10 6 6 13 19 42 94 100 100 100 100 100 94 87 74 65 61 45 23 23
3 0 0 0 0 0 0 0 0 0 0 0 0 0 0 0 0 0 0 0 0 0 0 3 3 0 3 3 10 35 97 94 100 97 94 94 84 65 58 58 55 35 23
0 0 0 0 0 0 0 0 0 0 0 0 0 0 0 0 0 0 0 0 0 0 0 0 0 3 3 3 3 3 42 71 90 97 90 90 87 65 55 55 65 61 39
0 0 0 0 0 0 0 0 0 0 0 0 0 0 0 0 0 0 0 0 0 0 0 0 0 0 6 6 6 3 6 13 45 81 87 87 87 81 65 61 71 68 58
0 0 0 0 0 0 0 0 0 0 0 0 0 0 0 0 0 0 0 0 0 0 0 0 0 0 0 3 3 6 6 3 3 26 48 71 87 84 77 68 71 81 84
0 0 0 0 0 0 0 0 0 0 0 0 0 0 0 0 0 0 0 0 0 0 0 0 0 0 0 0 0 0 6 6 3 3 10 23 35 42 39 65 74 81 84
0 0 0 0 0 0 0 0 0 0 0 0 0 0 0 0 0 0 0 0 0 0 0 0 0 0 0 0 0 0 0 6 3 0 3 3 6 13 19 23 32 45 48
0 0 0 0 0 0 0 0 0 0 0 0 0 0 0 0 0 0 0 0 0 0 0 0 0 0 0 0 0 0 0 0 0 0 0 0 0 0 0 0 0 0 3
0 0 0 0 0 0 0 0 0 0 0 0 0 0 0 0 0 0 0 0 0 0 0 0 0 0 0 0 0 0 0 0 0 0 0 0 0 0 0 0 0 0 0
0 0 0 0 0 0 0 0 0 0 0 0 0 0 0 0 0 0 0 0 0 0 0 0 0 0 0 0 0 0 0 0 0 0 0 0 0 0 0 0 0 0 0
0 0 0 0 0 0 0 0 0 0 0 0 0 0 0 0 0 0 0 0 0 0 0 0 0 0 0 0 0 0 0 0 0 0 0 0 0 0 0 0 0 0 0
0 0 0 0 0 0 0 0 0 0 0 0 0 0 0 0 0 0 0 0 0 0 0 0 0 0 0 0 0 0 0 0 0 0 0 0 0 0 0 0 0 0 0
0 0 0 0 0 0 0 0 0 0 0 0 0 0 0 0 0 0 0 0 0 0 0 0 0 0 0 0 0 0 0 0 0 0 0 0 0 0 0 0 0 0 0
0 0 0 0 0 0 0 0 0 0 0 0 0 0 0 0 0 0 0 0 0 0 0 0 0 0 0 0 0 0 0 0 0 0 0 0 0 0 0 0 0 0 0
0 0 0 0 0 0 0 0 0 0 0 0 0 0 0 0 0 0 0 0 0 0 0 0 0 0 0 0 0 0 0 0 0 0 0 0 0 0 0 0 0 0 0
0 0 0 0 0 0 0 0 0 0 0 0 0 0 0 0 0 0 0 0 0 0 0 0 0 0 0 0 0 0 0 0 0 0 0 0 0 0 0 0 0 0 0
0 0 0 0 0 0 0 0 0 0 0 0 0 0 0 0 0 0 0 0 0 0 0 0 0 0 0 0 0 0 0 0 0 0 0 0 0 0 0 0 0 0 0
0 0 0 0 0 0 0 0 0 0 0 0 0 0 0 0 0 0 0 0 0 0 0 0 0 0 0 0 0 0 0 0 0 0 0 0 0 0 0 0 0 0 0
0 0 0 0 0 0 0 0 0 0 0 0 0 0 0 0 0 0 0 0 0 0 0 0 0 0 0 0 0 0 0 0 0 0 0 0 0 0 0 0 0 0 0

GEFSMA_con_cape1000_084.txt.gz
Probability
74 74 71 61 68 71 65 61 61 65 61 55 61 58 68 61 61 55 52 71 94 97 94 97 94 97 100 100 100 100 100 100 100 100 100 100 100 94 90 87 94 94 94
58 55 48 42 39 29 42 42 48 45 48 48 48 45 45 42 45 45 48 45 77 94 94 97 94 97 94 97 97 100 100 100 100 100 97 100 100 100 90 90 90 94 90
35 42 32 26 26 16 16 19 23 29 26 26 29 32 35 35 35 42 42 45 39 65 87 94 100 97 94 87 97 100 100 100 100 100 97 94 94 100 100 97 97 90 87
19 16 16 16 10 10 10 10 6 10 10 10 16 16 19 23 23 23 35 39 32 26 68 84 90 90 90 84 81 97 97 100 97 100 97 94 94 94 97 94 94 84 68
10 6 10 6 3 3 3 6 6 6 6 6 10 10 13 13 13 16 23 19 23 23 29 42 84 90 87 84 81 84 97 100 100 100 100 97 94 87 81 77 81 74 58
3 3 3 3 0 0 0 0 0 0 3 3 0 3 3 13 13 6 10 10 13 13 19 19 48 77 87 84 87 81 94 100 100 100 100 97 100 87 81 68 58 55 48
0 0 0 0 0 0 0 0 0 0 0 0 0 0 0 0 3 6 10 10 10 10 10 16 16 32 58 74 74 81 87 94 100 100 100 97 94 94 81 65 39 35 29
0 0 0 0 0 0 0 0 0 0 0 0 0 0 0 0 3 3 3 6 6 10 10 6 10 23 32 39 29 68 87 90 97 100 100 94 90 84 74 74 39 29 19
0 0 0 0 0 0 0 0 0 0 0 0 0 0 0 0 0 0 0 0 0 3 6 6 6 13 16 23 42 29 84 84 100 97 97 100 87 74 71 68 55 32 19
0 0 0 0 0 0 0 0 0 0 0 0 0 0 0 0 0 0 0 0 0 0 3 0 3 6 10 16 16 3 32 39 77 94 97 97 87 77 58 61 74 61 29
0 0 0 0 0 0 0 0 0 0 0 0 0 0 0 0 0 0 0 0 0 0 0 0 3 6 10 10 16 6 3 10 39 55 81 90 90 81 61 65 77 74 65
0 0 0 0 0 0 0 0 0 0 0 0 0 0 0 0 0 0 0 0 0 0 0 0 0 3 10 13 13 3 3 3 3 13 42 65 77 74 74 68 77 74 71
0 0 0 0 0 0 0 0 0 0 0 0 0 0 0 0 0 0 0 0 0 0 0 0 0 0 0 3 6 0 0 0 0 0 6 32 39 48 65 61 65 68 68
0 0 0 0 0 0 0 0 0 0 0 0 0 0 0 0 0 0 0 0 0 0 0 0 0 0 0 0 0 0 3 0 0 0 0 0 6 13 13 26 32 35 39
0 0 0 0 0 0 0 0 0 0 0 0 0 0 0 0 0 0 0 0 0 0 0 0 0 0 0 0 0 0 0 0 0 0 0 0 0 0 3 3 3 3 6
0 0 0 0 0 0 0 0 0 0 0 0 0 0 0 0 0 0 0 0 0 0 0 0 0 0 0 0 0 0 0 0 0 0 0 0 0 0 0 0 0 0 0
0 0 0 0 0 0 0 0 0 0 0 0 0 0 0 0 0 0 0 0 0 0 0 0 0 0 0 0 0 0 0 0 0 0 0 0 0 0 0 0 0 0 0
0 0 0 0 0 0 0 0 0 0 0 0 0 0 0 0 0 0 0 0 0 0 0 0 0 0 0 0 0 0 0 0 0 0 0 0 0 0 0 0 0 0 0
0 0 0 0 0 0 0 0 0 0 0 0 0 0 0 0 0 0 0 0 0 0 0 0 0 0 0 0 0 0 0 0 0 0 0 0 0 0 0 0 0 0 0
0 0 0 0 0 0 0 0 0 0 0 0 0 0 0 0 0 0 0 0 0 0 0 0 0 0 0 0 0 0 0 0 0 0 0 0 0 0 0 0 0 0 0
0 0 0 0 0 0 0 0 0 0 0 0 0 0 0 0 0 0 0 0 0 0 0 0 0 0 0 0 0 0 0 0 0 0 0 0 0 0 0 0 0 0 0
0 0 0 0 0 0 0 0 0 0 0 0 0 0 0 0 0 0 0 0 0 0 0 0 0 0 0 0 0 0 0 0 0 0 0 0 0 0 0 0 0 0 0
0 0 0 0 0 0 0 0 0 0 0 0 0 0 0 0 0 0 0 0 0 0 0 0 0 0 0 0 0 0 0 0 0 0 0 0 0 0 0 0 0 0 0
0 0 0 0 0 0 0 0 0 0 0 0 0 0 0 0 0 0 0 0 0 0 0 0 0 0 0 0 0 0 0 0 0 0 0 0 0 0 0 0 0 0 0
0 0 0 0 0 0 0 0 0 0 0 0 0 0 0 0 0 0 0 0 0 0 0 0 0 0 0 0 0 0 0 0 0 0 0 0 0 0 0 0 0 0 0
0 0 0 0 0 0 0 0 0 0 0 0 0 0 0 0 0 0 0 0 0 0 0 0 0 0 0 0 0 0 0 0 0 0 0 0 0 0 0 0 0 0 0

GEFSMA_con_cape1000_090.txt.gz
Probability
87 84 84 87 81 87 90 87 71 81 81 81 77 61 61 65 55 61 71 90 87 94 90 90 97 97 100 100 100 100 97 97 100 100 97 97 97 94 94 94 90 90 87
84 81 77 74 71 74 74 81 77 84 81 77 65 55 74 68 58 58 58 71 87 97 94 90 90 94 94 100 100 100 100 97 97 97 100 100 97 100 94 94 94 90 87
68 68 71 65 61 58 58 65 58 68 65 52 58 58 65 61 65 61 61 61 71 74 90 94 97 97 94 90 90 100 100 100 100 97 97 97 97 94 97 94 94 90 87
55 55 48 45 52 39 45 48 58 52 58 55 55 42 42 52 58 65 58 65 71 52 65 81 87 90 87 87 90 94 94 97 100 97 97 97 97 97 90 90 90 90 87
23 26 23 26 29 23 19 23 23 29 35 42 42 42 35 32 45 39 35 35 65 68 65 65 74 87 81 77 87 87 87 90 94 90 90 97 97 97 90 90 90 84 71
16 16 13 13 10 10 13 16 19 32 29 29 16 10 19 29 19 19 26 23 35 42 39 39 58 55 71 84 84 84 90 84 81 77 87 90 94 94 90 84 77 71 55
10 6 6 10 10 10 6 10 16 16 16 16 19 16 16 16 19 32 26 26 23 29 35 32 45 55 58 55 71 77 77 71 71 77 81 84 90 90 87 81 55 52 48
6 0 3 0 0 3 0 0 6 10 10 6 10 6 6 6 26 3 19 19 16 29 23 19 42 61 52 45 29 61 71 74 71 65 71 77 81 87 84 74 55 35 35
0 0 0 0 3 0 0 0 3 3 3 3 3 6 6 3 0 13 23 16 35 32 26 19 19 35 55 71 68 23 58 58 61 61 71 68 71 58 61 65 61 35 26
0 0 0 0 0 0 0 3 0 0 3 3 3 3 6 3 3 6 10 16 19 29 23 3 6 16 32 52 74 39 42 42 61 65 71 71 65 52 48 61 68 68 32
0 0 0 0 0 0 0 0 0 0 3 0 0 0 0 3 0 3 3 3 10 13 13 10 13 13 10 39 61 23 16 16 23 42 71 65 68 68 61 65 77 74 68
0 0 0 0 0 0 0 0 0 0 0 3 0 0 0 0 0 0 0 3 16 10 10 16 10 16 13 23 13 3 10 3 3 13 29 48 65 71 65 71 77 84 81
0 0 0 0 0 0 0 0 0 0 0 0 0 0 0 0 0 3 0 3 6 10 3 10 13 16 6 13 29 3 0 0 0 0 0 10 29 39 45 55 77 94 97
0 0 0 0 0 0 0 0 0 0 0 0 0 0 0 0 0 0 0 0 0 6 0 0 19 16 13 23 10 0 10 0 0 0 0 0 3 10 19 19 32 55 68
0 0 0 0 0 0 0 0 0 0 0 0 0 0 0 0 0 0 3 0 0 0 0 0 10 10 16 19 0 6 26 0 0 0 0 0 0 0 3 3 3 3 6
0 0 0 0 0 0 0 0 0 0 0 0 0 0 0 0 0 0 0 0 3 0 0 3 3 10 13 0 0 13 13 0 0 0 0 0 0 0 0 0 0 0 0
0 0 0 0 0 0 0 0 0 0 0 0 0 0 0 0 0 0 0 0 0 0 0 3 0 0 6 3 6 16 13 13 0 0 0 0 0 0 0 0 0 0 0
0 0 0 0 0 0 0 0 0 0 0 0 0 0 0 0 0 0 0 0 0 0 0 0 0 0 0 3 3 10 6 0 3 0 0 0 0 0 0 0 0 0 0
0 0 0 0 0 0 0 0 0 0 0 0 0 0 0 0 0 0 0 0 0 0 0 3 0 6 0 3 6 3 3 16 0 0 0 0 0 0 0 0 0 0 0
0 0 0 0 0 0 0 0 0 0 0 0 0 0 0 0 0 0 0 0 0 0 0 0 0 3 3 3 3 6 6 6 3 0 0 0 0 0 0 0 0 0 0
0 0 0 0 0 0 0 0 0 0 0 0 0 0 0 0 0 0 0 0 0 0 0 0 0 0 3 3 0 0 3 3 3 0 3 0 3 0 0 0 0 0 0
0 0 0 0 0 0 0 0 0 0 0 0 0 0 0 0 0 0 0 0 0 0 0 0 0 0 0 3 3 0 3 3 0 3 3 0 3 10 3 3 0 0 0
0 0 0 0 0 0 0 0 0 0 0 0 0 0 0 0 0 0 0 0 0 0 0 0 0 0 0 0 3 0 0 3 0 0 3 0 3 0 0 0 0 0 0
0 0 0 0 0 0 0 0 0 0 0 0 0 0 0 0 0 0 0 0 0 0 0 0 0 0 0 0 3 6 3 0 6 0 0 0 0 0 0 0 0 0 0
0 0 0 0 0 0 0 0 0 0 0 0 0 0 0 0 0 0 0 0 0 0 0 0 0 0 0 0 0 3 0 0 0 0 0 0 0 0 0 0 0 0 0
0 0 0 0 0 0 0 0 0 0 0 0 0 0 0 0 0 0 0 0 0 0 0 0 0 0 0 0 0 0 0 0 0 0 0 0 0 0 0 0 0 0 0

GEFSMA_con_cape1000_096.txt.gz
Probability
90 87 77 81 81 81 81 81 81 65 74 74 74 71 68 61 61 68 81 90 97 97 97 100 100 100 100 100 100 100 100 100 100 100 100 97 97 90 90 87 87 84 81
77 74 74 74 68 71 68 68 74 71 71 71 71 68 71 65 65 61 61 77 94 94 97 97 100 100 100 100 100 100 100 100 100 100 100 100 97 97 94 90 87 90 84
71 68 71 65 68 58 61 68 61 65 58 55 58 65 68 74 71 61 58 68 74 87 94 94 97 100 100 100 100 100 100 100 100 100 100 100 100 97 94 94 94 94 84
42 52 52 52 48 55 61 61 58 55 52 52 55 52 48 68 61 61 61 65 61 65 84 97 94 94 97 100 100 100 100 100 100 100 100 97 97 97 97 94 94 94 81
19 32 42 52 35 35 42 26 42 32 26 29 29 35 32 32 52 42 42 45 55 58 58 74 94 94 94 94 100 97 97 100 100 100 100 100 94 90 87 87 90 87 71
26 32 32 32 23 26 23 29 26 26 29 35 10 10 26 29 39 32 32 23 45 42 45 48 68 71 90 94 97 94 90 100 100 100 100 100 100 90 84 74 71 71 65
19 19 23 35 23 23 26 13 10 6 6 13 13 10 13 16 23 39 32 32 23 26 39 35 48 55 45 74 94 94 94 94 100 97 97 100 100 97 81 61 58 58 39
16 13 29 23 19 23 16 13 10 0 6 6 6 6 6 6 19 3 23 32 26 29 29 23 39 32 35 39 35 71 90 90 94 94 94 97 100 87 81 74 48 39 26
19 23 23 23 19 10 6 3 0 3 0 6 6 3 0 6 10 10 13 13 32 35 29 26 23 29 26 32 32 23 71 77 94 84 90 87 74 61 58 61 52 29 16
19 13 13 19 10 3 3 0 0 0 0 0 3 3 3 0 3 6 10 10 10 23 35 23 16 23 19 26 29 26 26 39 68 81 81 84 65 55 48 58 74 52 23
26 16 16 16 10 6 0 0 0 0 3 0 0 0 3 3 0 3 0 10 6 6 10 26 19 23 19 26 32 19 10 6 16 45 65 65 58 55 52 61 81 84 61
19 16 10 13 10 6 3 0 0 0 0 0 0 0 0 0 0 0 0 0 0 3 6 10 13 13 23 19 16 10 6 3 0 10 29 48 55 55 52 61 68 71 81
10 10 3 6 6 6 0 0 0 0 0 0 0 0 0 0 0 0 0 0 0 3 0 13 13 16 10 16 13 3 3 0 0 0 0 10 29 35 39 48 61 77 81
3 0 0 0 0 0 0 0 0 0 0 0 0 0 0 0 0 0 0 0 0 0 0 0 10 3 10 6 6 0 0 0 0 0 0 0 0 6 10 13 23 32 45
0 0 0 0 0 0 0 0 0 0 0 0 0 0 0 0 0 0 0 0 0 0 0 0 0 10 6 6 3 0 3 0 0 0 0 0 0 0 0 0 3 3 3
0 0 0 0 0 0 0 0 0 0 0 0 0 0 0 0 0 0 0 0 0 0 0 0 0 3 0 3 0 6 6 0 0 0 0 0 0 0 0 0 0 0 0
0 0 0 0 0 0 0 0 0 0 0 0 0 0 0 0 0 0 0 0 0 0 0 0 0 0 0 0 0 3 3 0 0 0 0 0 0 0 0 0 0 0 0
0 0 0 0 0 0 0 0 0 0 0 0 0 0 0 0 0 0 0 0 0 0 0 0 0 0 0 0 0 0 0 3 0 0 0 0 0 0 0 0 0 0 0
0 0 0 0 0 0 0 0 0 0 0 0 0 0 0 0 0 0 0 0 0 0 0 0 0 0 0 0 0 0 0 0 0 0 0 0 0 0 0 0 0 0 0
0 0 0 0 0 0 0 0 0 0 0 0 0 0 0 0 0 0 0 0 0 0 0 0 0 0 0 0 0 0 0 0 0 0 0 0 0 0 0 0 0 0 0
0 0 0 0 0 0 0 0 0 0 0 0 0 0 0 0 0 0 0 0 0 0 0 0 0 0 0 0 0 0 0 0 0 0 0 0 0 0 0 0 0 0 0
0 0 0 0 0 0 0 0 0 0 0 0 0 0 0 0 0 0 0 0 0 0 0 0 0 0 0 0 0 0 0 0 0 0 0 0 0 0 0 0 0 0 0
0 0 0 0 0 0 0 0 0 0 0 0 0 0 0 0 0 0 0 0 0 0 0 0 0 0 0 0 0 0 0 0 0 0 0 0 0 0 0 0 0 0 0
0 0 0 0 0 0 0 0 0 0 0 0 0 0 0 0 0 0 0 0 0 0 0 0 0 0 0 0 0 0 0 0 0 0 0 0 0 0 0 0 0 0 0
0 0 0 0 0 0 0 0 0 0 0 0 0 0 0 0 0 0 0 0 0 0 0 0 0 0 0 0 0 0 0 0 0 0 0 0 0 0 0 0 0 0 0
0 0 0 0 0 0 0 0 0 0 0 0 0 0 0 0 0 0 0 0 0 0 0 0 0 0 0 0 0 0 0 0 0 0 0 0 0 0 0 0 0 0 0